This demonstration page uses our WeatherBlox Daily Observations layout. Learn more.

39.29038, -76.61219

Hourly Observations for September 27, 2016

Temp ( °F °C ) Dew Point ( °F °C ) Humidity (%) Winds ( mph kmh ) Pressure ( in mb ) Visibility ( mi km ) Precip ( " mm )
12:54 am 00:54 undefined 66 18.9 60 15.6 81 81 undefined N/A 29.95 1014 N/A 0 0
1:54 am 01:54 undefined 67 19.4 61 16.1 81 81 undefined N/A 29.95 1014 N/A 0 0
2:54 am 02:54 undefined 65 18.3 62 16.7 90 90 undefined N/A 29.95 1014 N/A 0.09 2.286
3:54 am 03:54 undefined 65 18.3 63 17.2 93 93 undefined N/A 29.94 1014 N/A 0.03 0.762
4:54 am 04:54 undefined 66 18.9 63 17.2 90 90 undefined N/A 29.94 1014 N/A 0 0
5:54 am 05:54 undefined 66 18.9 63 17.2 90 90 undefined N/A 29.94 1014 N/A 0 0
6:54 am 06:54 undefined 66 18.9 63 17.2 90 90 undefined N/A 29.95 1014 N/A 0 0
7:54 am 07:54 undefined 66 18.9 63 17.2 90 90 undefined N/A 29.96 1014 N/A 0 0
8:54 am 08:54 undefined 67 19.4 63 17.2 87 87 undefined N/A 29.97 1015 N/A 0 0
9:54 am 09:54 undefined 67 19.4 55 12.8 66 66 undefined N/A 29.98 1015 N/A 0 0
10:54 am 10:54 undefined 68 20 56 13.3 65 65 undefined N/A 29.99 1016 N/A 0 0
11:54 am 11:54 undefined 70 21.1 56 13.3 61 61 undefined N/A 29.97 1015 N/A 0 0
12:54 pm 12:54 undefined 72 22.2 48 8.9 43 43 undefined N/A 29.95 1014 N/A 0 0
1:54 pm 13:54 undefined 73 22.8 52 11.1 48 48 undefined N/A 29.93 1014 N/A 0 0
2:54 pm 14:54 undefined 75 23.9 53 11.7 46 46 undefined N/A 29.91 1013 N/A 0 0
3:54 pm 15:54 undefined 74 23.3 55 12.8 52 52 undefined N/A 29.89 1012 N/A 0 0
4:54 pm 16:54 undefined 73 22.8 57 13.9 57 57 undefined N/A 29.89 1012 N/A 0 0
5:54 pm 17:54 undefined 72 22.2 59 15 64 64 undefined N/A 29.9 1012 N/A 0 0
6:54 pm 18:54 undefined 71 21.7 59 15 66 66 undefined N/A 29.91 1013 N/A 0 0
7:54 pm 19:54 undefined 70 21.1 56 13.3 61 61 undefined N/A 29.92 1013 N/A 0 0
8:54 pm 20:54 undefined 68 20 58 14.4 70 70 undefined N/A 29.93 1014 N/A 0 0
9:54 pm 21:54 undefined 67 19.4 58 14.4 73 73 undefined N/A 29.94 1014 N/A 0 0
10:54 pm 22:54 undefined 67 19.4 59 15 76 76 undefined N/A 29.96 1014 N/A 0 0
11:54 pm 23:54 undefined 67 19.4 60 15.6 79 79 undefined N/A 29.95 1014 N/A 0 0

Powered by AerisWeather